Time,TemperatureF,DewpointF,PressureIn,WindDirection,WindDirectionDegrees,WindSpeedMPH,WindSpeedGustMPH,Humidity,HourlyPrecipIn,Conditions,Clouds,dailyrainin,SoftwareType,DateUTC
2013-05-19 00:01:00,76.0,60.7,29.41,North,0,0.0,0.0,59,0.00,,,0.00,WUHU216HW,2013-05-19 05:01:00,
2013-05-19 00:06:00,76.0,61.1,29.40,North,0,0.0,0.0,60,0.00,,,0.00,WUHU216HW,2013-05-19 05:06:00,
2013-05-19 00:11:00,74.9,60.1,29.40,North,0,0.0,0.0,60,0.00,,,0.00,WUHU216HW,2013-05-19 05:11:00,
2013-05-19 00:16:00,73.8,60.0,29.39,North,0,0.0,0.0,62,0.00,,,0.00,WUHU216HW,2013-05-19 05:16:00,
2013-05-19 00:21:00,73.4,59.6,29.42,North,0,0.0,0.0,62,0.00,,,0.00,WUHU216HW,2013-05-19 05:21:00,
2013-05-19 00:26:00,73.4,60.5,29.44,North,0,0.0,0.0,64,0.00,,,0.00,WUHU216HW,2013-05-19 05:26:00,
2013-05-19 00:30:00,73.3,61.2,29.43,North,0,0.0,0.0,66,0.00,,,0.00,WUHU216HW,2013-05-19 05:30:00,
2013-05-19 00:35:00,72.9,60.8,29.43,North,0,0.0,0.0,66,0.01,,,0.01,WUHU216HW,2013-05-19 05:35:00,
2013-05-19 00:40:00,72.0,61.3,29.42,North,0,0.0,0.0,69,0.01,,,0.01,WUHU216HW,2013-05-19 05:40:00,
2013-05-19 00:45:00,71.1,61.2,29.41,North,0,0.0,0.0,71,0.01,,,0.01,WUHU216HW,2013-05-19 05:45:00,
2013-05-19 00:50:00,69.8,60.8,29.40,North,0,0.0,0.0,73,0.02,,,0.01,WUHU216HW,2013-05-19 05:50:00,
2013-05-19 00:55:00,69.1,61.2,29.40,North,0,0.0,0.0,76,0.09,,,0.02,WUHU216HW,2013-05-19 05:55:00,
2013-05-19 01:00:00,68.9,60.7,29.41,North,0,0.0,0.0,75,0.09,,,0.09,WUHU216HW,2013-05-19 06:00:00,
2013-05-19 01:05:00,68.6,61.5,29.42,North,0,0.0,0.0,78,0.11,,,0.11,WUHU216HW,2013-05-19 06:05:00,
2013-05-19 01:10:00,68.2,60.4,29.46,North,0,0.0,0.0,76,0.11,,,0.11,WUHU216HW,2013-05-19 06:10:00,
2013-05-19 01:15:00,68.4,60.6,29.47,North,0,0.0,0.0,76,0.11,,,0.11,WUHU216HW,2013-05-19 06:15:00,
2013-05-19 01:20:00,67.9,60.4,29.44,North,0,0.0,0.0,77,0.46,,,0.36,WUHU216HW,2013-05-19 06:20:00,
2013-05-19 01:25:00,67.3,59.9,29.45,North,0,0.0,0.0,77,0.48,,,0.47,WUHU216HW,2013-05-19 06:25:00,
2013-05-19 01:30:00,67.3,59.9,29.47,North,0,0.0,0.0,77,0.48,,,0.47,WUHU216HW,2013-05-19 06:30:00,
2013-05-19 01:35:00,66.8,59.8,29.46,North,0,0.0,0.0,78,0.47,,,0.47,WUHU216HW,2013-05-19 06:35:00,
2013-05-19 01:40:00,67.0,60.0,29.46,North,0,0.0,0.0,78,0.48,,,0.47,WUHU216HW,2013-05-19 06:40:00,
2013-05-19 01:45:00,67.0,60.0,29.44,North,0,0.0,0.0,78,0.48,,,0.49,WUHU216HW,2013-05-19 06:45:00,
2013-05-19 01:50:00,67.0,60.0,29.44,North,0,0.0,0.0,78,0.48,,,0.49,WUHU216HW,2013-05-19 06:50:00,
2013-05-19 01:55:00,66.8,59.8,29.47,North,0,0.0,0.0,78,0.41,,,0.49,WUHU216HW,2013-05-19 06:55:00,
2013-05-19 02:00:00,66.6,60.0,29.45,North,0,0.0,0.0,79,0.40,,,0.51,WUHU216HW,2013-05-19 07:00:00,
2013-05-19 02:05:00,66.6,60.0,29.45,North,0,0.0,0.0,79,0.41,,,0.52,WUHU216HW,2013-05-19 07:05:00,
2013-05-19 02:10:00,66.2,59.9,29.43,North,0,0.0,0.0,80,0.41,,,0.52,WUHU216HW,2013-05-19 07:10:00,
2013-05-19 02:15:00,66.1,60.1,29.39,North,0,0.0,0.0,81,0.42,,,0.53,WUHU216HW,2013-05-19 07:15:00,
2013-05-19 02:20:00,65.9,60.2,29.36,North,0,0.0,0.0,82,0.06,,,0.53,WUHU216HW,2013-05-19 07:20:00,
2013-05-19 02:25:00,65.3,59.7,29.36,North,0,0.0,0.0,82,0.05,,,0.53,WUHU216HW,2013-05-19 07:25:00,
2013-05-19 02:30:00,65.2,59.5,29.35,North,0,0.0,0.0,82,0.05,,,0.53,WUHU216HW,2013-05-19 07:30:00,
2013-05-19 02:35:00,65.2,59.5,29.34,North,0,0.0,0.0,82,0.05,,,0.53,WUHU216HW,2013-05-19 07:35:00,
2013-05-19 02:40:00,65.2,59.9,29.34,North,0,0.0,0.0,83,0.04,,,0.53,WUHU216HW,2013-05-19 07:40:00,
2013-05-19 02:45:00,65.2,59.9,29.39,North,0,0.0,0.0,83,0.03,,,0.53,WUHU216HW,2013-05-19 07:45:00,
2013-05-19 02:50:00,65.5,59.9,29.40,North,0,0.0,0.0,82,0.03,,,0.53,WUHU216HW,2013-05-19 07:50:00,
2013-05-19 02:55:00,65.5,59.9,29.40,North,0,0.0,0.0,82,0.03,,,0.53,WUHU216HW,2013-05-19 07:55:00,
2013-05-19 03:00:00,65.5,59.9,29.42,North,0,0.0,0.0,82,0.01,,,0.53,WUHU216HW,2013-05-19 08:00:00,
2013-05-19 03:05:00,65.5,59.9,29.42,North,0,0.0,0.0,82,0.01,,,0.53,WUHU216HW,2013-05-19 08:05:00,
2013-05-19 03:10:00,65.7,60.0,29.41,North,0,0.0,0.0,82,0.01,,,0.53,WUHU216HW,2013-05-19 08:10:00,
2013-05-19 03:15:00,65.3,59.7,29.40,North,0,0.0,0.0,82,0.00,,,0.53,WUHU216HW,2013-05-19 08:15:00,
2013-05-19 03:20:00,65.2,59.9,29.38,North,0,0.0,0.0,83,0.00,,,0.53,WUHU216HW,2013-05-19 08:20:00,
2013-05-19 03:25:00,65.2,59.9,29.36,North,0,0.0,0.0,83,0.00,,,0.53,WUHU216HW,2013-05-19 08:25:00,
2013-05-19 03:30:00,65.0,60.0,29.35,North,0,0.0,0.0,84,0.00,,,0.53,WUHU216HW,2013-05-19 08:30:00,
2013-05-19 03:35:00,64.8,59.9,29.34,North,0,0.0,0.0,84,0.00,,,0.53,WUHU216HW,2013-05-19 08:35:00,
2013-05-19 03:40:00,64.4,59.5,29.32,North,0,0.0,0.0,84,0.00,,,0.53,WUHU216HW,2013-05-19 08:40:00,
2013-05-19 03:45:00,64.4,59.1,29.33,North,0,0.0,0.0,83,0.00,,,0.53,WUHU216HW,2013-05-19 08:45:00,
2013-05-19 03:50:00,64.3,59.0,29.34,North,0,0.0,0.0,83,0.00,,,0.53,WUHU216HW,2013-05-19 08:50:00,
2013-05-19 03:55:00,64.3,59.0,29.34,North,0,0.0,0.0,83,0.00,,,0.53,WUHU216HW,2013-05-19 08:55:00,
2013-05-19 04:00:00,64.4,59.1,29.34,North,0,0.0,0.0,83,0.00,,,0.53,WUHU216HW,2013-05-19 09:00:00,
2013-05-19 04:05:00,64.4,59.1,29.34,North,0,0.0,0.0,83,0.00,,,0.53,WUHU216HW,2013-05-19 09:05:00,
2013-05-19 04:10:00,64.4,59.1,29.35,North,0,0.0,0.0,83,0.00,,,0.53,WUHU216HW,2013-05-19 09:10:00,
2013-05-19 04:15:00,64.3,59.0,29.35,North,0,0.0,0.0,83,0.00,,,0.53,WUHU216HW,2013-05-19 09:15:00,
2013-05-19 04:20:00,64.3,59.3,29.35,North,0,0.0,0.0,84,0.00,,,0.53,WUHU216HW,2013-05-19 09:20:00,
2013-05-19 04:25:00,64.1,59.1,29.35,North,0,0.0,0.0,84,0.00,,,0.53,WUHU216HW,2013-05-19 09:25:00,
2013-05-19 04:30:00,63.9,59.0,29.36,North,0,0.0,0.0,84,0.00,,,0.53,WUHU216HW,2013-05-19 09:30:00,
2013-05-19 04:35:00,63.7,59.1,29.34,North,0,0.0,0.0,85,0.00,,,0.53,WUHU216HW,2013-05-19 09:35:00,
2013-05-19 04:40:00,63.7,59.1,29.34,North,0,0.0,0.0,85,0.00,,,0.53,WUHU216HW,2013-05-19 09:40:00,
2013-05-19 04:45:00,63.5,59.0,29.34,North,0,0.0,0.0,85,0.00,,,0.53,WUHU216HW,2013-05-19 09:45:00,
2013-05-19 04:50:00,63.7,59.1,29.34,North,0,0.0,0.0,85,0.00,,,0.53,WUHU216HW,2013-05-19 09:50:00,
2013-05-19 04:55:00,63.5,59.0,29.34,North,0,0.0,0.0,85,0.00,,,0.53,WUHU216HW,2013-05-19 09:55:00,
2013-05-19 05:00:00,63.7,59.1,29.35,North,0,0.0,0.0,85,0.00,,,0.53,WUHU216HW,2013-05-19 10:00:00,
2013-05-19 05:05:00,63.7,59.1,29.35,North,0,0.0,0.0,85,0.00,,,0.53,WUHU216HW,2013-05-19 10:05:00,
2013-05-19 05:10:00,63.7,59.1,29.35,North,0,0.0,0.0,85,0.00,,,0.53,WUHU216HW,2013-05-19 10:10:00,
2013-05-19 05:15:00,63.7,59.1,29.36,North,0,0.0,0.0,85,0.00,,,0.53,WUHU216HW,2013-05-19 10:15:00,
2013-05-19 05:20:00,63.7,59.1,29.36,North,0,0.0,0.0,85,0.00,,,0.53,WUHU216HW,2013-05-19 10:20:00,
2013-05-19 05:25:00,63.7,59.1,29.36,North,0,0.0,0.0,85,0.00,,,0.53,WUHU216HW,2013-05-19 10:25:00,
2013-05-19 05:30:00,63.7,59.1,29.35,North,0,0.0,0.0,85,0.00,,,0.53,WUHU216HW,2013-05-19 10:30:00,
2013-05-19 05:35:00,63.7,59.1,29.34,North,0,0.0,0.0,85,0.00,,,0.53,WUHU216HW,2013-05-19 10:35:00,
2013-05-19 05:40:00,63.7,58.8,29.34,North,0,0.0,0.0,84,0.00,,,0.53,WUHU216HW,2013-05-19 10:40:00,
2013-05-19 05:45:00,63.5,58.6,29.34,North,0,0.0,0.0,84,0.00,,,0.53,WUHU216HW,2013-05-19 10:45:00,
2013-05-19 05:50:00,63.5,59.0,29.34,North,0,0.0,0.0,85,0.00,,,0.53,WUHU216HW,2013-05-19 10:50:00,
2013-05-19 05:55:00,63.5,59.0,29.35,North,0,0.0,0.0,85,0.00,,,0.53,WUHU216HW,2013-05-19 10:55:00,
2013-05-19 06:00:00,63.5,59.0,29.34,North,0,0.0,0.0,85,0.00,,,0.53,WUHU216HW,2013-05-19 11:00:00,
2013-05-19 06:05:00,63.4,58.8,29.34,North,0,0.0,0.0,85,0.00,,,0.53,WUHU216HW,2013-05-19 11:05:00,
2013-05-19 06:10:00,63.4,58.8,29.34,North,0,0.0,0.0,85,0.00,,,0.53,WUHU216HW,2013-05-19 11:10:00,
2013-05-19 06:15:00,63.2,58.6,29.34,North,0,0.0,0.0,85,0.00,,,0.53,WUHU216HW,2013-05-19 11:15:00,
2013-05-19 06:20:00,63.2,58.6,29.33,North,0,0.0,0.0,85,0.00,,,0.53,WUHU216HW,2013-05-19 11:20:00,
2013-05-19 06:25:00,63.2,58.6,29.33,North,0,0.0,0.0,85,0.00,,,0.53,WUHU216HW,2013-05-19 11:25:00,
2013-05-19 06:30:00,63.2,58.6,29.33,North,0,0.0,0.0,85,0.00,,,0.53,WUHU216HW,2013-05-19 11:30:00,
2013-05-19 06:35:00,63.0,58.4,29.33,North,0,0.0,0.0,85,0.00,,,0.53,WUHU216HW,2013-05-19 11:35:00,
2013-05-19 06:40:00,63.0,58.4,29.33,North,0,0.0,0.0,85,0.00,,,0.53,WUHU216HW,2013-05-19 11:40:00,
2013-05-19 06:45:00,62.8,58.2,29.33,North,0,0.0,0.0,85,0.00,,,0.53,WUHU216HW,2013-05-19 11:45:00,
2013-05-19 06:50:00,62.8,58.6,29.32,North,0,0.0,0.0,86,0.00,,,0.53,WUHU216HW,2013-05-19 11:50:00,
2013-05-19 06:55:00,62.8,58.6,29.32,North,0,0.0,0.0,86,0.00,,,0.53,WUHU216HW,2013-05-19 11:55:00,
2013-05-19 07:00:00,62.6,58.4,29.32,North,0,0.0,0.0,86,0.00,,,0.53,WUHU216HW,2013-05-19 12:00:00,
2013-05-19 07:05:00,62.6,58.8,29.30,North,0,0.0,0.0,87,0.00,,,0.53,WUHU216HW,2013-05-19 12:05:00,
2013-05-19 07:10:00,62.6,58.8,29.30,North,0,0.0,0.0,87,0.00,,,0.53,WUHU216HW,2013-05-19 12:10:00,
2013-05-19 07:15:00,63.0,59.1,29.30,North,0,0.0,0.0,87,0.00,,,0.53,WUHU216HW,2013-05-19 12:15:00,
2013-05-19 07:20:00,63.5,59.7,29.31,North,0,0.0,0.0,87,0.00,,,0.53,WUHU216HW,2013-05-19 12:20:00,
2013-05-19 07:25:00,63.7,59.9,29.32,North,0,0.0,0.0,87,0.00,,,0.53,WUHU216HW,2013-05-19 12:25:00,
2013-05-19 07:30:00,64.1,60.2,29.33,North,0,0.0,0.0,87,0.00,,,0.53,WUHU216HW,2013-05-19 12:30:00,
2013-05-19 07:35:00,64.4,60.6,29.34,North,0,0.0,0.0,87,0.00,,,0.53,WUHU216HW,2013-05-19 12:35:00,
2013-05-19 07:40:00,64.6,60.7,29.35,North,0,0.0,0.0,87,0.00,,,0.53,WUHU216HW,2013-05-19 12:40:00,
2013-05-19 07:45:00,65.0,60.7,29.36,North,0,0.0,0.0,86,0.00,,,0.53,WUHU216HW,2013-05-19 12:45:00,
2013-05-19 07:50:00,65.0,60.7,29.36,North,0,0.0,0.0,86,0.00,,,0.53,WUHU216HW,2013-05-19 12:50:00,
2013-05-19 07:55:00,65.2,60.6,29.36,North,0,0.0,0.0,85,0.00,,,0.53,WUHU216HW,2013-05-19 12:55:00,
2013-05-19 08:00:00,65.2,60.6,29.36,North,0,0.0,0.0,85,0.00,,,0.53,WUHU216HW,2013-05-19 13:00:00,
2013-05-19 08:05:00,65.2,60.8,29.36,North,0,0.0,0.0,86,0.00,,,0.53,WUHU216HW,2013-05-19 13:05:00,
2013-05-19 08:10:00,65.0,60.7,29.36,North,0,0.0,0.0,86,0.00,,,0.53,WUHU216HW,2013-05-19 13:10:00,
2013-05-19 08:15:00,65.0,60.4,29.36,North,0,0.0,0.0,85,0.00,,,0.53,WUHU216HW,2013-05-19 13:15:00,
2013-05-19 08:20:00,65.0,60.4,29.37,North,0,0.0,0.0,85,0.00,,,0.53,WUHU216HW,2013-05-19 13:20:00,
2013-05-19 08:25:00,65.0,60.4,29.37,North,0,0.0,0.0,85,0.00,,,0.53,WUHU216HW,2013-05-19 13:25:00,
2013-05-19 08:30:00,65.2,60.6,29.36,North,0,0.0,0.0,85,0.00,,,0.53,WUHU216HW,2013-05-19 13:30:00,
2013-05-19 08:35:00,65.0,60.0,29.37,North,0,0.0,0.0,84,0.00,,,0.53,WUHU216HW,2013-05-19 13:35:00,
2013-05-19 08:40:00,64.8,59.9,29.37,North,0,0.0,0.0,84,0.00,,,0.53,WUHU216HW,2013-05-19 13:40:00,
2013-05-19 08:45:00,64.8,59.9,29.36,North,0,0.0,0.0,84,0.00,,,0.53,WUHU216HW,2013-05-19 13:45:00,
2013-05-19 08:50:00,65.0,60.0,29.36,North,0,0.0,0.0,84,0.00,,,0.53,WUHU216HW,2013-05-19 13:50:00,
2013-05-19 08:55:00,65.0,60.0,29.36,North,0,0.0,0.0,84,0.00,,,0.53,WUHU216HW,2013-05-19 13:55:00,
2013-05-19 09:00:00,64.8,59.9,29.36,North,0,0.0,0.0,84,0.00,,,0.53,WUHU216HW,2013-05-19 14:00:00,
2013-05-19 09:05:00,64.6,59.3,29.36,North,0,0.0,0.0,83,0.00,,,0.53,WUHU216HW,2013-05-19 14:05:00,
2013-05-19 09:10:00,64.4,59.5,29.35,North,0,0.0,0.0,84,0.00,,,0.53,WUHU216HW,2013-05-19 14:10:00,
2013-05-19 09:15:00,64.4,59.5,29.35,North,0,0.0,0.0,84,0.00,,,0.53,WUHU216HW,2013-05-19 14:15:00,
2013-05-19 09:20:00,64.3,59.7,29.35,North,0,0.0,0.0,85,0.00,,,0.53,WUHU216HW,2013-05-19 14:20:00,
2013-05-19 09:25:00,64.1,59.5,29.35,North,0,0.0,0.0,85,0.00,,,0.53,WUHU216HW,2013-05-19 14:25:00,
2013-05-19 09:30:00,64.1,59.9,29.34,North,0,0.0,0.0,86,0.00,,,0.53,WUHU216HW,2013-05-19 14:30:00,
2013-05-19 09:35:00,63.9,60.0,29.34,North,0,0.0,0.0,87,0.00,,,0.53,WUHU216HW,2013-05-19 14:35:00,
2013-05-19 09:40:00,63.9,60.0,29.33,North,0,0.0,0.0,87,0.00,,,0.53,WUHU216HW,2013-05-19 14:40:00,
2013-05-19 09:45:00,64.1,60.2,29.33,North,0,0.0,0.0,87,0.00,,,0.53,WUHU216HW,2013-05-19 14:45:00,
2013-05-19 09:50:00,63.9,60.0,29.33,North,0,0.0,0.0,87,0.00,,,0.53,WUHU216HW,2013-05-19 14:50:00,
2013-05-19 09:55:00,64.1,60.2,29.32,North,0,0.0,0.0,87,0.00,,,0.53,WUHU216HW,2013-05-19 14:55:00,
2013-05-19 09:59:00,63.9,60.3,29.32,North,0,0.0,0.0,88,0.13,,,0.53,WUHU216HW,2013-05-19 14:59:00,
2013-05-19 10:04:00,63.9,60.3,29.32,North,0,0.0,0.0,88,0.13,,,0.53,WUHU216HW,2013-05-19 15:04:00,
2013-05-19 10:12:00,63.9,60.3,29.32,North,0,0.0,0.0,88,0.13,,,0.66,WUHU216HW,2013-05-19 15:12:00,
2013-05-19 10:17:00,64.1,60.5,29.32,North,0,0.0,0.0,88,0.13,,,0.66,WUHU216HW,2013-05-19 15:17:00,
2013-05-19 10:22:00,64.1,60.5,29.32,North,0,0.0,0.0,88,0.13,,,0.66,WUHU216HW,2013-05-19 15:22:00,
2013-05-19 10:27:00,64.3,60.7,29.32,North,0,0.0,0.0,88,0.13,,,0.66,WUHU216HW,2013-05-19 15:27:00,
2013-05-19 10:32:00,64.4,60.8,29.33,North,0,0.0,0.0,88,0.13,,,0.66,WUHU216HW,2013-05-19 15:32:00,
2013-05-19 10:37:00,64.4,60.8,29.33,North,0,0.0,0.0,88,0.13,,,0.66,WUHU216HW,2013-05-19 15:37:00,
2013-05-19 10:42:00,64.8,61.2,29.32,North,0,0.0,0.0,88,0.13,,,0.66,WUHU216HW,2013-05-19 15:42:00,
2013-05-19 10:47:00,65.0,61.4,29.32,North,0,0.0,0.0,88,0.13,,,0.66,WUHU216HW,2013-05-19 15:47:00,
2013-05-19 10:52:00,65.2,61.2,29.32,North,0,0.0,0.0,87,0.13,,,0.66,WUHU216HW,2013-05-19 15:52:00,
2013-05-19 10:57:00,65.3,61.8,29.33,North,0,0.0,0.0,88,0.13,,,0.66,WUHU216HW,2013-05-19 15:57:00,
2013-05-19 11:02:00,65.3,61.8,29.34,North,0,0.0,0.0,88,0.00,,,0.66,WUHU216HW,2013-05-19 16:02:00,
2013-05-19 11:07:00,65.5,61.8,29.34,North,0,0.0,0.0,88,0.00,,,0.66,WUHU216HW,2013-05-19 16:07:00,
2013-05-19 11:12:00,65.7,62.0,29.34,North,0,0.0,0.0,88,0.00,,,0.66,WUHU216HW,2013-05-19 16:12:00,
2013-05-19 11:16:00,65.9,62.2,29.33,North,0,0.0,0.0,88,0.00,,,0.66,WUHU216HW,2013-05-19 16:16:00,
2013-05-19 11:21:00,66.1,62.4,29.33,North,0,0.0,0.0,88,0.00,,,0.66,WUHU216HW,2013-05-19 16:21:00,
2013-05-19 11:26:00,66.2,62.6,29.32,North,0,0.0,0.0,88,0.00,,,0.66,WUHU216HW,2013-05-19 16:26:00,
2013-05-19 11:31:00,67.0,63.3,29.33,North,0,0.0,0.0,88,0.00,,,0.66,WUHU216HW,2013-05-19 16:31:00,
2013-05-19 11:36:00,67.0,62.9,29.34,North,0,0.0,0.0,87,0.00,,,0.66,WUHU216HW,2013-05-19 16:36:00,
2013-05-19 11:41:00,67.1,63.1,29.33,North,0,0.0,0.0,87,0.00,,,0.66,WUHU216HW,2013-05-19 16:41:00,
2013-05-19 11:46:00,67.0,62.9,29.33,North,0,0.0,0.0,87,0.00,,,0.66,WUHU216HW,2013-05-19 16:46:00,
2013-05-19 11:51:00,67.0,62.9,29.33,North,0,0.0,0.0,87,0.00,,,0.66,WUHU216HW,2013-05-19 16:51:00,
2013-05-19 11:56:00,67.1,62.8,29.33,North,0,0.0,0.0,86,0.00,,,0.66,WUHU216HW,2013-05-19 16:56:00,
2013-05-19 12:01:00,67.5,63.2,29.33,North,0,0.0,0.0,86,0.01,,,0.67,WUHU216HW,2013-05-19 17:01:00,
2013-05-19 12:06:00,67.7,63.4,29.33,North,0,0.0,0.0,86,0.01,,,0.67,WUHU216HW,2013-05-19 17:06:00,
2013-05-19 12:11:00,67.9,63.6,29.33,North,0,0.0,0.0,86,0.01,,,0.67,WUHU216HW,2013-05-19 17:11:00,
2013-05-19 12:16:00,68.2,63.9,29.33,North,0,0.0,0.0,86,0.01,,,0.67,WUHU216HW,2013-05-19 17:16:00,
2013-05-19 12:21:00,68.8,64.4,29.33,North,0,0.0,0.0,86,0.01,,,0.67,WUHU216HW,2013-05-19 17:21:00,
2013-05-19 12:26:00,70.0,65.3,29.33,North,0,0.0,0.0,85,0.01,,,0.67,WUHU216HW,2013-05-19 17:26:00,
2013-05-19 12:31:00,70.6,65.4,29.34,North,0,0.0,0.0,84,0.01,,,0.67,WUHU216HW,2013-05-19 17:31:00,
2013-05-19 12:36:00,70.9,65.2,29.34,North,0,0.0,0.0,82,0.01,,,0.67,WUHU216HW,2013-05-19 17:36:00,
2013-05-19 12:41:00,71.1,65.4,29.33,North,0,0.0,0.0,82,0.01,,,0.67,WUHU216HW,2013-05-19 17:41:00,
2013-05-19 12:46:00,71.6,65.9,29.33,North,0,0.0,0.0,82,0.01,,,0.67,WUHU216HW,2013-05-19 17:46:00,
2013-05-19 12:51:00,72.5,66.4,29.32,North,0,0.0,0.0,81,0.01,,,0.67,WUHU216HW,2013-05-19 17:51:00,
2013-05-19 12:56:00,72.7,66.6,29.32,North,0,0.0,0.0,81,0.00,,,0.67,WUHU216HW,2013-05-19 17:56:00,
2013-05-19 13:01:00,73.1,66.6,29.32,North,0,0.0,0.0,80,0.00,,,0.67,WUHU216HW,2013-05-19 18:01:00,
2013-05-19 13:06:00,73.3,66.8,29.32,North,0,0.0,0.0,80,0.00,,,0.67,WUHU216HW,2013-05-19 18:06:00,
2013-05-19 13:11:00,73.3,66.8,29.31,North,0,0.0,0.0,80,0.00,,,0.67,WUHU216HW,2013-05-19 18:11:00,
2013-05-19 13:16:00,73.8,67.0,29.32,North,0,0.0,0.0,79,0.00,,,0.67,WUHU216HW,2013-05-19 18:16:00,
2013-05-19 13:21:00,74.5,66.9,29.32,North,0,0.0,0.0,77,0.00,,,0.67,WUHU216HW,2013-05-19 18:21:00,
2013-05-19 13:26:00,74.9,67.2,29.31,North,0,0.0,0.0,77,0.00,,,0.67,WUHU216HW,2013-05-19 18:26:00,
2013-05-19 13:31:00,75.2,67.6,29.31,North,0,0.0,0.0,77,0.00,,,0.67,WUHU216HW,2013-05-19 18:31:00,
2013-05-19 13:36:00,75.6,67.5,29.31,North,0,0.0,0.0,76,0.00,,,0.67,WUHU216HW,2013-05-19 18:36:00,
2013-05-19 13:41:00,75.8,67.3,29.30,North,0,0.0,0.0,75,0.00,,,0.67,WUHU216HW,2013-05-19 18:41:00,
2013-05-19 13:46:00,76.0,67.5,29.30,North,0,0.0,0.0,75,0.00,,,0.67,WUHU216HW,2013-05-19 18:46:00,
2013-05-19 13:51:00,76.3,67.4,29.30,North,0,0.0,0.0,74,0.00,,,0.67,WUHU216HW,2013-05-19 18:51:00,
2013-05-19 13:56:00,76.3,67.4,29.30,North,0,0.0,0.0,74,0.00,,,0.67,WUHU216HW,2013-05-19 18:56:00,
2013-05-19 14:01:00,76.3,67.1,29.29,North,0,0.0,0.0,73,0.00,,,0.67,WUHU216HW,2013-05-19 19:01:00,
2013-05-19 14:06:00,76.5,66.9,29.29,North,0,0.0,0.0,72,0.00,,,0.67,WUHU216HW,2013-05-19 19:06:00,
2013-05-19 14:11:00,76.7,67.0,29.29,North,0,0.0,0.0,72,0.00,,,0.67,WUHU216HW,2013-05-19 19:11:00,
2013-05-19 14:16:00,77.0,67.3,29.29,North,0,0.0,0.0,72,0.00,,,0.67,WUHU216HW,2013-05-19 19:16:00,
2013-05-19 14:21:00,77.2,67.1,29.29,North,0,0.0,0.0,71,0.00,,,0.67,WUHU216HW,2013-05-19 19:21:00,
2013-05-19 14:26:00,77.4,67.3,29.29,North,0,0.0,0.0,71,0.00,,,0.67,WUHU216HW,2013-05-19 19:26:00,
2013-05-19 14:31:00,77.8,67.2,29.29,North,0,0.0,0.0,70,0.00,,,0.67,WUHU216HW,2013-05-19 19:31:00,
2013-05-19 14:42:00,78.3,67.3,29.29,North,0,0.0,0.0,69,0.00,,,0.67,WUHU216HW,2013-05-19 19:42:00,
2013-05-19 14:47:00,78.3,66.9,29.30,North,0,0.0,0.0,68,0.00,,,0.67,WUHU216HW,2013-05-19 19:47:00,
2013-05-19 14:52:00,78.3,66.9,29.30,North,0,0.0,0.0,68,0.00,,,0.67,WUHU216HW,2013-05-19 19:52:00,
2013-05-19 14:57:00,78.1,66.2,29.31,North,0,0.0,0.0,67,0.00,,,0.67,WUHU216HW,2013-05-19 19:57:00,
2013-05-19 15:02:00,77.9,66.1,29.31,North,0,0.0,0.0,67,0.00,,,0.67,WUHU216HW,2013-05-19 20:02:00,
2013-05-19 15:07:00,77.6,66.3,29.31,North,0,0.0,0.0,68,0.00,,,0.67,WUHU216HW,2013-05-19 20:07:00,
2013-05-19 15:12:00,77.4,66.1,29.31,North,0,0.0,0.0,68,0.00,,,0.67,WUHU216HW,2013-05-19 20:12:00,
2013-05-19 15:17:00,77.2,66.3,29.31,North,0,0.0,0.0,69,0.00,,,0.67,WUHU216HW,2013-05-19 20:17:00,
2013-05-19 15:22:00,77.0,66.2,29.31,North,0,0.0,0.0,69,0.00,,,0.67,WUHU216HW,2013-05-19 20:22:00,
2013-05-19 15:27:00,76.9,66.0,29.30,North,0,0.0,0.0,69,0.00,,,0.67,WUHU216HW,2013-05-19 20:27:00,
2013-05-19 15:32:00,76.3,65.9,29.31,North,0,0.0,0.0,70,0.00,,,0.67,WUHU216HW,2013-05-19 20:32:00,
2013-05-19 15:37:00,76.1,65.7,29.32,North,0,0.0,0.0,70,0.00,,,0.67,WUHU216HW,2013-05-19 20:37:00,
2013-05-19 15:42:00,75.6,65.5,29.32,North,0,0.0,0.0,71,0.07,,,0.74,WUHU216HW,2013-05-19 20:42:00,
2013-05-19 15:47:00,73.6,64.1,29.32,North,0,0.0,0.0,72,0.11,,,0.74,WUHU216HW,2013-05-19 20:47:00,
2013-05-19 15:52:00,72.4,64.0,29.30,North,0,0.0,0.0,75,0.12,,,0.78,WUHU216HW,2013-05-19 20:52:00,
2013-05-19 15:57:00,71.3,63.3,29.26,North,0,0.0,0.0,76,0.13,,,0.80,WUHU216HW,2013-05-19 20:57:00,
2013-05-19 16:02:00,70.6,62.9,29.24,North,0,0.0,0.0,77,0.14,,,0.81,WUHU216HW,2013-05-19 21:02:00,
2013-05-19 16:07:00,69.5,62.3,29.24,North,0,0.0,0.0,78,0.14,,,0.81,WUHU216HW,2013-05-19 21:07:00,
2013-05-19 16:12:00,69.3,62.1,29.25,North,0,0.0,0.0,78,0.14,,,0.81,WUHU216HW,2013-05-19 21:12:00,
2013-05-19 16:17:00,69.1,61.9,29.27,North,0,0.0,0.0,78,0.14,,,0.81,WUHU216HW,2013-05-19 21:17:00,
2013-05-19 16:22:00,69.7,62.5,29.27,North,0,0.0,0.0,78,0.14,,,0.81,WUHU216HW,2013-05-19 21:22:00,
2013-05-19 16:27:00,69.8,62.7,29.27,North,0,0.0,0.0,78,0.14,,,0.81,WUHU216HW,2013-05-19 21:27:00,
2013-05-19 16:32:00,69.8,62.2,29.27,North,0,0.0,0.0,77,0.14,,,0.81,WUHU216HW,2013-05-19 21:32:00,
2013-05-19 16:37:00,69.8,62.2,29.26,North,0,0.0,0.0,77,0.07,,,0.81,WUHU216HW,2013-05-19 21:37:00,
2013-05-19 16:42:00,70.2,62.6,29.27,North,0,0.0,0.0,77,0.07,,,0.81,WUHU216HW,2013-05-19 21:42:00,
2013-05-19 16:47:00,70.6,62.9,29.26,North,0,0.0,0.0,77,0.03,,,0.81,WUHU216HW,2013-05-19 21:47:00,
2013-05-19 16:52:00,70.7,63.1,29.25,North,0,0.0,0.0,77,0.01,,,0.81,WUHU216HW,2013-05-19 21:52:00,
2013-05-19 16:57:00,70.7,63.1,29.24,North,0,0.0,0.0,77,0.00,,,0.81,WUHU216HW,2013-05-19 21:57:00,
2013-05-19 17:02:00,70.6,62.9,29.24,North,0,0.0,0.0,77,0.00,,,0.81,WUHU216HW,2013-05-19 22:02:00,
2013-05-19 17:07:00,70.2,62.6,29.23,North,0,0.0,0.0,77,0.00,,,0.81,WUHU216HW,2013-05-19 22:07:00,
2013-05-19 17:12:00,69.8,62.7,29.24,North,0,0.0,0.0,78,0.00,,,0.81,WUHU216HW,2013-05-19 22:12:00,
2013-05-19 17:17:00,69.7,62.5,29.24,North,0,0.0,0.0,78,0.00,,,0.81,WUHU216HW,2013-05-19 22:17:00,
2013-05-19 17:22:00,69.5,62.6,29.23,North,0,0.0,0.0,79,0.00,,,0.81,WUHU216HW,2013-05-19 22:22:00,
2013-05-19 17:27:00,69.3,62.5,29.22,North,0,0.0,0.0,79,0.00,,,0.81,WUHU216HW,2013-05-19 22:27:00,
2013-05-19 17:32:00,68.9,62.2,29.22,North,0,0.0,0.0,79,0.00,,,0.81,WUHU216HW,2013-05-19 22:32:00,
2013-05-19 17:37:00,68.8,62.0,29.21,North,0,0.0,0.0,79,0.00,,,0.81,WUHU216HW,2013-05-19 22:37:00,
2013-05-19 17:42:00,68.4,61.7,29.21,North,0,0.0,0.0,79,0.00,,,0.81,WUHU216HW,2013-05-19 22:42:00,
2013-05-19 17:47:00,68.6,61.5,29.22,North,0,0.0,0.0,78,0.00,,,0.81,WUHU216HW,2013-05-19 22:47:00,
2013-05-19 17:52:00,68.8,61.7,29.22,North,0,0.0,0.0,78,0.00,,,0.81,WUHU216HW,2013-05-19 22:52:00,
2013-05-19 17:57:00,69.5,61.9,29.21,North,0,0.0,0.0,77,0.00,,,0.81,WUHU216HW,2013-05-19 22:57:00,
2013-05-19 18:02:00,69.8,62.2,29.21,North,0,0.0,0.0,77,0.00,,,0.81,WUHU216HW,2013-05-19 23:02:00,
2013-05-19 18:07:00,70.2,62.6,29.21,North,0,0.0,0.0,77,0.00,,,0.81,WUHU216HW,2013-05-19 23:07:00,
2013-05-19 18:12:00,70.2,62.2,29.21,North,0,0.0,0.0,76,0.00,,,0.81,WUHU216HW,2013-05-19 23:12:00,
2013-05-19 18:17:00,70.4,62.0,29.21,North,0,0.0,0.0,75,0.00,,,0.81,WUHU216HW,2013-05-19 23:17:00,
2013-05-19 18:22:00,70.4,62.0,29.23,North,0,0.0,0.0,75,0.00,,,0.81,WUHU216HW,2013-05-19 23:22:00,
2013-05-19 18:27:00,70.2,61.5,29.24,North,0,0.0,0.0,74,0.00,,,0.81,WUHU216HW,2013-05-19 23:27:00,
2013-05-19 18:32:00,70.0,60.9,29.24,North,0,0.0,0.0,73,0.00,,,0.81,WUHU216HW,2013-05-19 23:32:00,
2013-05-19 18:37:00,69.7,60.9,29.24,North,0,0.0,0.0,74,0.00,,,0.81,WUHU216HW,2013-05-19 23:37:00,
2013-05-19 18:43:00,69.7,61.3,29.21,North,0,0.0,0.0,75,0.00,,,0.81,WUHU216HW,2013-05-19 23:43:00,
2013-05-19 18:48:00,69.5,61.6,29.22,North,0,0.0,0.0,76,0.00,,,0.81,WUHU216HW,2013-05-19 23:48:00,
2013-05-19 18:53:00,69.5,61.6,29.21,North,0,0.0,0.0,76,0.00,,,0.81,WUHU216HW,2013-05-19 23:53:00,
2013-05-19 18:58:00,69.5,61.9,29.21,North,0,0.0,0.0,77,0.00,,,0.81,WUHU216HW,2013-05-19 23:58:00,
2013-05-19 19:03:00,69.3,61.7,29.24,North,0,0.0,0.0,77,0.00,,,0.81,WUHU216HW,2013-05-20 00:03:00,
2013-05-19 19:08:00,69.3,61.7,29.25,North,0,0.0,0.0,77,0.00,,,0.81,WUHU216HW,2013-05-20 00:08:00,
2013-05-19 19:13:00,69.3,62.1,29.24,North,0,0.0,0.0,78,0.00,,,0.81,WUHU216HW,2013-05-20 00:13:00,
2013-05-19 19:18:00,68.9,61.8,29.25,North,0,0.0,0.0,78,0.00,,,0.81,WUHU216HW,2013-05-20 00:18:00,
2013-05-19 19:23:00,68.6,61.1,29.25,North,0,0.0,0.0,77,0.00,,,0.81,WUHU216HW,2013-05-20 00:23:00,
2013-05-19 19:28:00,67.9,60.4,29.25,North,0,0.0,0.0,77,0.01,,,0.82,WUHU216HW,2013-05-20 00:28:00,
2013-05-19 19:33:00,67.1,59.7,29.24,North,0,0.0,0.0,77,0.01,,,0.82,WUHU216HW,2013-05-20 00:33:00,
2013-05-19 19:38:00,65.5,58.9,29.21,North,0,0.0,0.0,79,0.02,,,0.82,WUHU216HW,2013-05-20 00:38:00,
2013-05-19 19:43:00,64.8,58.5,29.20,North,0,0.0,0.0,80,0.02,,,0.83,WUHU216HW,2013-05-20 00:43:00,
2013-05-19 19:48:00,63.9,58.0,29.19,North,0,0.0,0.0,81,0.02,,,0.83,WUHU216HW,2013-05-20 00:48:00,
2013-05-19 19:53:00,63.7,58.2,29.19,North,0,0.0,0.0,82,0.02,,,0.83,WUHU216HW,2013-05-20 00:53:00,
2013-05-19 19:58:00,63.4,57.8,29.20,North,0,0.0,0.0,82,0.03,,,0.83,WUHU216HW,2013-05-20 00:58:00,
2013-05-19 20:03:00,63.4,57.8,29.21,North,0,0.0,0.0,82,0.03,,,0.84,WUHU216HW,2013-05-20 01:03:00,
2013-05-19 20:08:00,63.4,57.8,29.21,North,0,0.0,0.0,82,0.03,,,0.84,WUHU216HW,2013-05-20 01:08:00,
2013-05-19 20:13:00,63.2,57.6,29.21,North,0,0.0,0.0,82,0.03,,,0.84,WUHU216HW,2013-05-20 01:13:00,
2013-05-19 20:18:00,63.2,57.6,29.20,North,0,0.0,0.0,82,0.03,,,0.84,WUHU216HW,2013-05-20 01:18:00,
2013-05-19 20:23:00,63.4,57.4,29.19,North,0,0.0,0.0,81,0.02,,,0.84,WUHU216HW,2013-05-20 01:23:00,
2013-05-19 20:28:00,63.4,57.4,29.19,North,0,0.0,0.0,81,0.02,,,0.84,WUHU216HW,2013-05-20 01:28:00,
2013-05-19 20:33:00,63.4,57.1,29.19,North,0,0.0,0.0,80,0.02,,,0.84,WUHU216HW,2013-05-20 01:33:00,
2013-05-19 20:38:00,63.4,56.7,29.19,North,0,0.0,0.0,79,0.01,,,0.84,WUHU216HW,2013-05-20 01:38:00,
2013-05-19 20:43:00,63.5,56.9,29.18,North,0,0.0,0.0,79,0.01,,,0.84,WUHU216HW,2013-05-20 01:43:00,
2013-05-19 20:48:00,63.5,56.9,29.18,North,0,0.0,0.0,79,0.01,,,0.84,WUHU216HW,2013-05-20 01:48:00,
2013-05-19 20:53:00,63.7,57.4,29.19,North,0,0.0,0.0,80,0.01,,,0.84,WUHU216HW,2013-05-20 01:53:00,
2013-05-19 20:58:00,63.7,57.1,29.18,North,0,0.0,0.0,79,0.00,,,0.84,WUHU216HW,2013-05-20 01:58:00,
2013-05-19 21:03:00,63.7,57.4,29.18,North,0,0.0,0.0,80,0.00,,,0.84,WUHU216HW,2013-05-20 02:03:00,
2013-05-19 21:08:00,63.7,57.4,29.18,North,0,0.0,0.0,80,0.00,,,0.84,WUHU216HW,2013-05-20 02:08:00,
2013-05-19 21:13:00,63.7,57.1,29.19,North,0,0.0,0.0,79,0.00,,,0.84,WUHU216HW,2013-05-20 02:13:00,
2013-05-19 21:18:00,63.7,57.1,29.20,North,0,0.0,0.0,79,0.00,,,0.84,WUHU216HW,2013-05-20 02:18:00,
2013-05-19 21:23:00,63.7,57.4,29.21,North,0,0.0,0.0,80,0.00,,,0.84,WUHU216HW,2013-05-20 02:23:00,
2013-05-19 21:28:00,63.7,57.4,29.22,North,0,0.0,0.0,80,0.00,,,0.84,WUHU216HW,2013-05-20 02:28:00,
2013-05-19 21:33:00,63.7,57.4,29.22,North,0,0.0,0.0,80,0.00,,,0.84,WUHU216HW,2013-05-20 02:33:00,
2013-05-19 21:38:00,63.7,57.4,29.27,North,0,0.0,0.0,80,0.00,,,0.84,WUHU216HW,2013-05-20 02:38:00,
2013-05-19 21:43:00,63.7,57.1,29.27,North,0,0.0,0.0,79,0.00,,,0.84,WUHU216HW,2013-05-20 02:43:00,
2013-05-19 21:48:00,63.7,57.4,29.29,North,0,0.0,0.0,80,0.00,,,0.84,WUHU216HW,2013-05-20 02:48:00,
2013-05-19 21:53:00,63.9,56.9,29.29,North,0,0.0,0.0,78,0.00,,,0.84,WUHU216HW,2013-05-20 02:53:00,
2013-05-19 21:58:00,64.1,56.7,29.30,North,0,0.0,0.0,77,0.00,,,0.84,WUHU216HW,2013-05-20 02:58:00,
2013-05-19 22:03:00,64.1,56.7,29.31,North,0,0.0,0.0,77,0.00,,,0.84,WUHU216HW,2013-05-20 03:03:00,
2013-05-19 22:08:00,64.3,56.9,29.31,North,0,0.0,0.0,77,0.00,,,0.84,WUHU216HW,2013-05-20 03:08:00,
2013-05-19 22:13:00,64.1,56.7,29.31,North,0,0.0,0.0,77,0.00,,,0.84,WUHU216HW,2013-05-20 03:13:00,
2013-05-19 22:18:00,64.1,56.0,29.30,North,0,0.0,0.0,75,0.00,,,0.84,WUHU216HW,2013-05-20 03:18:00,
2013-05-19 22:23:00,64.1,56.0,29.30,North,0,0.0,0.0,75,0.00,,,0.84,WUHU216HW,2013-05-20 03:23:00,
2013-05-19 22:28:00,63.9,56.2,29.31,North,0,0.0,0.0,76,0.00,,,0.84,WUHU216HW,2013-05-20 03:28:00,
2013-05-19 22:33:00,63.9,56.2,29.31,North,0,0.0,0.0,76,0.00,,,0.84,WUHU216HW,2013-05-20 03:33:00,
2013-05-19 22:38:00,63.7,56.3,29.31,North,0,0.0,0.0,77,0.00,,,0.84,WUHU216HW,2013-05-20 03:38:00,
2013-05-19 22:43:00,63.5,56.2,29.30,North,0,0.0,0.0,77,0.00,,,0.84,WUHU216HW,2013-05-20 03:43:00,
2013-05-19 22:48:00,63.5,56.5,29.29,North,0,0.0,0.0,78,0.00,,,0.84,WUHU216HW,2013-05-20 03:48:00,
2013-05-19 22:53:00,63.4,56.0,29.29,North,0,0.0,0.0,77,0.00,,,0.84,WUHU216HW,2013-05-20 03:53:00,
2013-05-19 22:58:00,63.0,56.0,29.28,North,0,0.0,0.0,78,0.00,,,0.84,WUHU216HW,2013-05-20 03:58:00,
2013-05-19 23:03:00,62.8,55.8,29.27,North,0,0.0,0.0,78,0.00,,,0.84,WUHU216HW,2013-05-20 04:03:00,
2013-05-19 23:08:00,62.5,55.4,29.25,North,0,0.0,0.0,78,0.00,,,0.84,WUHU216HW,2013-05-20 04:08:00,
2013-05-19 23:13:00,62.1,55.2,29.24,North,0,0.0,0.0,78,0.00,,,0.84,WUHU216HW,2013-05-20 04:13:00,
2013-05-19 23:18:00,62.1,55.2,29.24,North,0,0.0,0.0,78,0.00,,,0.84,WUHU216HW,2013-05-20 04:18:00,
2013-05-19 23:23:00,61.9,55.0,29.24,North,0,0.0,0.0,78,0.00,,,0.84,WUHU216HW,2013-05-20 04:23:00,
2013-05-19 23:28:00,62.1,55.2,29.24,North,0,0.0,0.0,78,0.00,,,0.84,WUHU216HW,2013-05-20 04:28:00,
2013-05-19 23:33:00,62.3,55.6,29.24,North,0,0.0,0.0,79,0.00,,,0.84,WUHU216HW,2013-05-20 04:33:00,
2013-05-19 23:38:00,62.3,55.6,29.23,North,0,0.0,0.0,79,0.00,,,0.84,WUHU216HW,2013-05-20 04:38:00,
2013-05-19 23:43:00,62.1,55.5,29.20,North,0,0.0,0.0,79,0.00,,,0.84,WUHU216HW,2013-05-20 04:43:00,
2013-05-19 23:48:00,61.6,55.0,29.19,North,0,0.0,0.0,79,0.00,,,0.84,WUHU216HW,2013-05-20 04:48:00,
2013-05-19 23:53:00,61.2,55.1,29.17,North,0,0.0,0.0,80,0.00,,,0.84,WUHU216HW,2013-05-20 04:53:00,
2013-05-19 23:58:00,61.2,54.7,29.17,North,0,0.0,0.0,79,0.00,,,0.84,WUHU216HW,2013-05-20 04:58:00,